Погода в Братолюбовке

Погода в Братолюбовке : погода сейчас, прогноз погоды и архив. Всё, что Вы хотите узнать о погоде в Братолюбовке!

Поиск расширенной информации на нашем сайте:

Другие новости

Новости СМИ2

Главная страница сайта

Новости сайта

02.10.2013

Напоминаем, что на нашем новом сайте вы можете получить высокодетализированные прогнозы погоды по пунктам России, СНГ и мира (включающие важные для авиации метеовеличины, такие как направление и скорость ветра, видимость, явления погоды, количество и форма облачности, нижняя и верхняя граница облачности), а также ознакомиться с разнообразными материалами по авиационной метеорологии и подборкой полезных ссылок на эту тему.

Сайт Метеоцентр.Азия посвящён разработке технологий оптимизации авиаметеорологического обслуживания, включая проектирование и перспективное создание нескольких автоматизированных авиаметеорологических систем:
- система выпуска высокодетальных прогностических карт явлений погоды для нижнего воздушного пространства по России и ближнему зарубежью;
- система верификации прогнозов TAF (выпускаемых синоптиками официальных АМСГ РФ и ближнего зарубежья) и AUTOTAF (выпускаемых сайтом Метеоцентр.Азия) - выявление ошибок, онлайн-сопоставление с фактической погодой METAR, автоматическое внесение коррективов в прогнозы при резком отклонении фактической погоды от прогноза, подсчёт оправдываемости прогнозов по элементам и в целом;
- система обработки, анализа и отображения авиаметеорологической информации для применения провайдерами метеорологической информации.

Рекомендуем: Перфоратор оптом купить оптом перфоратор lad-rostov.ru.

Погода в Братолюбовке - сегодня

Время (UTC), дата Ветер
(°,м/с) 
Видим.   Явления Облачность Т
(°С)
Тd
(°С)
f(%) Тe
(°С)
Pmin
(гПа)
dP
(гПа)
Po
(мм)
O2
(г/м3)
Тmin Tmax R s Состояние
почвы
03 22.02.17 090 (В) 28000 м    10/0 средняя 
[As trans]
-10.7 -16.9 60 -13  1013.6  -0.9  738  311           
06 22.02.17 340 (С) 22000 м    9/0 средняя 
[Ac cast]
-7.7 -16 51 -9  1011.9  -1.3  737  307           
09 22.02.17 340 (С) 27000 м    9/0 средняя, верхняя 
[Ac lent|Cc]
-10.8 -18.2 54 -11  1013.5  1.1  738  311           
12 22.02.17 310 (СЗ) 25000 м    3/0 верхняя 
[Ci fib]
-14.1 -20.1 60 -14  1015  1.2  739  315    -7.7       
15 22.02.17 320 (СЗ) 30000 м    ясно 
-16.9 -21.7 66 -17  1015.2  -0.2  738  319           
18 22.02.17 300 (СЗ) 35000 м    ясно 
-19.7 -24.1 68 -20  1015.5  738  322           
21 22.02.17 270 (З) 45000 м    ясно 
-22.5 -26 73 -25  1016.2  0.3  739  326           
00 23.02.17 280 (З) 20000 м    ясно 
-19.4 -24.3 65 -22  1016.1  0.3  739  322  -22.9      24  равномерный
сухой снег
100% 
03 23.02.17 270 (З) 20000 м    ясно 
-12.1 -21.6 45 -15  1014.7  -0.5  738  313           
06 23.02.17 280 (З) 20000 м    ясно 
-9 -20.8 38 -13  1012.3  -2  737  309           
09 23.02.17 230 (ЮЗ) 20000 м    3/0 верхняя 
[Ci fib]
-12.5 -20.9 49 -15  1012.8  0.1  737  313           
12 23.02.17 220 (ЮЗ) 50000 м    3/0 верхняя 
[Ci fib]
-14.6 -20.8 59 -17  1012.5  -0.5  737  315    -8.7       
15 23.02.17 220 (ЮЗ) 50000 м    ясно 
-16.5 -22.1 62 -19  1011.8  -0.9  736  317           
18 23.02.17 230 (ЮЗ) 50000 м    ясно 
-21 -23.5 80 -21  1011.5  -0.8  735  323           
21 23.02.17 210 (ЮЗ) 45000 м    ясно 
-20.2 -23.4 76 -20  1010.2  -1.2  734  321           
00 24.02.17 230 (ЮЗ) 20000 м    ясно 
-16.9 -22.5 62 -19  1009.2  -0.6  734  317  -24.4      24  равномерный
сухой снег
100% 
03 24.02.17 260 (З) 20000 м    3/0 верхняя 
[Ci sp]
-10.9 -20.4 45 -14  1007.3  1.1  733  309           
06 24.02.17 310 (СЗ) 6-10{12}  20000 м    8/0 средняя, верхняя 
[Ac lent|Ci fib]
-8.6 -19.9 40 -14  1006.6  -0.4  733  306           
09 24.02.17 320 (СЗ) 4{12}  20000 м  позёмок  ясно 
-13.9 -26.4 34 -18  1010.3  735  314           
12 24.02.17 310 (СЗ) 50000 м    ясно 
-19 -28.7 42 -23  1013.3  2.2  737  321    -8.4       
15 24.02.17 290 (З) 50000 м    ясно 
-22.1 -30.8 45 -25  1013.4  -0.3  737  325           
18 24.02.17 280 (З) 50000 м    ясно 
-22.9 -31 48 -26  1012.6  -0.8  736  326           
21 24.02.17 260 (З) 50000 м    ясно 
-23.3 -30.4 52 -26  1012.5  -0.2  736  326           
00 25.02.17 310 (СЗ) 20000 м    1/0 верхняя 
[Ci fib]
-21.1 -30 45 -24  1013.2  737  323  -23.8      24  равномерный
сухой снег
100% 
03 25.02.17 330 (СЗ) 20000 м    1/0 верхняя 
[Ci fib]
-14.9 -27.7 33 -19  1013.1  0.6  737  316           
Время (UTC), дата Ветер
(°,м/с) 
Видим.   Явления Облачность Т
(°С)
Тd
(°С)
f(%) Тe
(°С)
Pmin
(гПа)
dP
(гПа)
Po
(мм)
O2
(г/м3)
Тmin Tmax R s Состояние
почвы

Для получения пояснительной информации подведите курсор к названию столбца.

ПОГОДА в Братолюбовке - архив

Всё, что Вы хотите узнать о погоде в Братолюбовке - удобно и подробно!

Выберите нужную дату (начиная с 1 января 2015* года) и нажмите кнопку "Найти".
Будут отображены архивные сводки погоды по пункту Братолюбовка, начиная с указанной даты.


Отображать данные в формате CSV (для использования в таблицах Excel)


Внимание! Наш архив погоды предназначен исключительно для личного некоммерческого использования в познавательных целях. Если Вам необходимы официальные справки о состоянии погоды (для производственных, юридических, коммерческих и т.п. целей), обращайтесь в органы Росгидромета.

*Примечание: данная дата относится к архиву по метеостанциям СССР (Россия, СНГ, Балтия).
Архив по метеостанциям Зарубежной Европы и Азии (кроме Китая) хранится 10 дней, по другим регионам земного шара (Китай, Африка, Америка, Австралия, Океания) - 1 день.

Братолюбовка - район местоположения метеостанции


Название, широта, долгота, высота метеостанции:
Братолюбовка 50.8°ш. 129.3°д. 227 м над ур. моря [Российская Федерация]

Дополнительная информация

В oтличие oт бoльшинства пoгoдных сайтoв мы публикуем пoдрoбную метеoинфoрмацию в детальнoм прoфессиoнальнoм фoрмате.

Характеристики температуры и влажнoсти вoздуха измеряются на высoте 2 м в тени вдали oт зданий и деревьев.
Скoрoсть ветра измеряется на высoте 10 м (на урoвне рoста челoвека скoрoсть ветра ниже в 1.5-2 раза). Если метеoстанция нахoдится в гoрoде или в лесу, тo скoрoсть ветра занижена на 2-4 м/с пo сравнению с oткрытым местoм. Скoрoсть ветра над акватoриями крупных рек и oзёр, а также на вершинах хoлмoв на 2-5 м/с выше, чем в oбычных услoвиях.
Атмoсфернoе давление в разных тoчках местнoсти мoжет значительнo oтличаться oт давления на метеoстанции, в зависимoсти oт услoвий рельефа (при пoдъёме на 10 м давление пoнижается примернo на 1 мм рт.ст.).